When you browse on this site, cookies collect data to enhance your experience and personalize the content and advertising you see.
Visit our Privacy Policy to learn more. By continuing to use the site, you agree to this use of cookies and data.
  • In Spain
  • List of Countries
  • For 7 days
  • Water Temperature
  • Weather Map
  • Weather Widgets
  • user-avatar
    Login

    Hourly Weather Popovka 1-ya

    Today, 29 March, Sunday

    Time Temperature Precipitation Wind Pressure Humidity
    00:00 +5°C° 0 mm 3 mps 739 mmHg 86%
    01:00 +6°C° 0 mm 2 mps 738 mmHg 90%
    02:00 +5°C° 0 mm 2 mps 738 mmHg 93%
    03:00 +5°C° 0 mm 2 mps 737 mmHg 94%
    04:00 +5°C° 0 mm 2 mps 737 mmHg 95%
    05:00 +5°C° 0 mm 2 mps 736 mmHg 96%
    06:00 +4°C° 0 mm 3 mps 736 mmHg 92%
    07:00 +5°C° 0 mm 3 mps 736 mmHg 88%
    08:00 +6°C° 0 mm 4 mps 736 mmHg 84%
    09:00 +7°C° 0 mm 4 mps 735 mmHg 76%
    10:00 +8°C° 0 mm 4 mps 735 mmHg 69%
    11:00 +10°C° 0 mm 4 mps 735 mmHg 61%
    12:00 +11°C° 0 mm 4 mps 734 mmHg 56%
    13:00 +12°C° 0 mm 4 mps 734 mmHg 50%
    14:00 +12°C° 0 mm 5 mps 734 mmHg 45%
    15:00 +12°C° 0 mm 4 mps 733 mmHg 46%
    16:00 +11°C° 0 mm 3 mps 732 mmHg 47%
    17:00 +10°C° 0 mm 3 mps 732 mmHg 48%
    18:00 +9°C° 0 mm 3 mps 732 mmHg 51%
    19:00 +9°C° 0 mm 3 mps 732 mmHg 54%
    20:00 +8°C° 0 mm 3 mps 731 mmHg 57%
    21:00 +7°C° 0 mm 3 mps 731 mmHg 59%
    22:00 +7°C° 0 mm 3 mps 730 mmHg 61%
    23:00 +7°C° 0 mm 2 mps 730 mmHg 63%

    Tomorrow, 30 March, Monday

    Time Temperature Precipitation Wind Pressure Humidity
    00:00 +6°C° 0 mm 2 mps 729 mmHg 64%
    01:00 +6°C° 0 mm 2 mps 729 mmHg 65%
    02:00 +6°C° 0 mm 2 mps 729 mmHg 67%
    03:00 +6°C° 0 mm 2 mps 728 mmHg 67%
    04:00 +6°C° 0 mm 2 mps 728 mmHg 67%
    05:00 +5°C° 0 mm 2 mps 728 mmHg 67%
    06:00 +7°C° 0 mm 1 mps 728 mmHg 66%
    07:00 +8°C° 0 mm 1 mps 728 mmHg 64%
    08:00 +8°C° 0 mm 1 mps 728 mmHg 62%
    09:00 +9°C° 0 mm 1 mps 728 mmHg 58%
    10:00 +10°C° 0 mm 1 mps 728 mmHg 54%
    11:00 +10°C° 0 mm 2 mps 729 mmHg 49%
    12:00 +10°C° 0 mm 3 mps 729 mmHg 51%
    13:00 +10°C° 0 mm 4 mps 729 mmHg 53%
    14:00 +9°C° 0 mm 5 mps 729 mmHg 55%
    15:00 +7°C° 0 mm 5 mps 729 mmHg 64%
    16:00 +4°C° 0 mm 6 mps 729 mmHg 74%
    17:00 +2°C° 0 mm 6 mps 729 mmHg 83%
    18:00 +1°C° 0.1 mm 6 mps 730 mmHg 86%
    19:00 -1°C° 0.1 mm 6 mps 731 mmHg 90%
    20:00 -1°C° 0.1 mm 5 mps 731 mmHg 93%
    21:00 -2°C° 0.2 mm 5 mps 731 mmHg 92%
    22:00 -2°C° 0.2 mm 5 mps 731 mmHg 91%
    23:00 -2°C° 0.2 mm 5 mps 731 mmHg 90%

    Day after tomorrow, 31 March, Tuesday

    Time Temperature Precipitation Wind Pressure Humidity
    00:00 -4°C° 0.3 mm 6 mps 732 mmHg 90%
    01:00 -5°C° 0.3 mm 6 mps 732 mmHg 91%
    02:00 -5°C° 0.3 mm 6 mps 733 mmHg 91%
    03:00 -7°C° 0.2 mm 7 mps 733 mmHg 91%
    04:00 -7°C° 0.2 mm 7 mps 734 mmHg 90%
    05:00 -8°C° 0.2 mm 7 mps 734 mmHg 90%
    06:00 -8°C° 0.1 mm 7 mps 735 mmHg 86%
    07:00 -8°C° 0.1 mm 7 mps 736 mmHg 83%
    08:00 -8°C° 0.1 mm 8 mps 736 mmHg 79%
    09:00 -7°C° 0 mm 7 mps 737 mmHg 73%
    10:00 -6°C° 0 mm 7 mps 738 mmHg 67%
    11:00 -6°C° 0 mm 7 mps 738 mmHg 61%
    12:00 -6°C° 0 mm 7 mps 739 mmHg 56%
    13:00 -4°C° 0 mm 7 mps 739 mmHg 52%
    14:00 -4°C° 0 mm 7 mps 739 mmHg 47%
    15:00 -4°C° 0 mm 6 mps 739 mmHg 47%
    16:00 -5°C° 0 mm 6 mps 740 mmHg 48%
    17:00 -5°C° 0 mm 6 mps 740 mmHg 48%
    18:00 -5°C° 0 mm 5 mps 740 mmHg 53%
    19:00 -5°C° 0 mm 4 mps 741 mmHg 58%
    20:00 -5°C° 0 mm 3 mps 741 mmHg 63%
    21:00 -5°C° 0 mm 3 mps 741 mmHg 63%
    22:00 -5°C° 0 mm 3 mps 741 mmHg 63%
    23:00 -7°C° 0 mm 4 mps 741 mmHg 63%

    1 April, Wednesday

    Time Temperature Precipitation Wind Pressure Humidity
    00:00 -7°C° 0 mm 4 mps 741 mmHg 65%
    01:00 -7°C° 0 mm 4 mps 741 mmHg 66%
    02:00 -6°C° 0 mm 3 mps 741 mmHg 68%
    03:00 -6°C° 0 mm 3 mps 740 mmHg 68%
    04:00 -6°C° 0 mm 3 mps 740 mmHg 68%
    05:00 -6°C° 0 mm 3 mps 740 mmHg 68%
    06:00 -5°C° 0 mm 4 mps 740 mmHg 60%
    07:00 -5°C° 0 mm 5 mps 740 mmHg 52%
    08:00 -4°C° 0 mm 5 mps 740 mmHg 45%
    09:00 -3°C° 0 mm 6 mps 739 mmHg 44%
    10:00 -2°C° 0 mm 6 mps 739 mmHg 42%
    11:00 -1°C° 0 mm 7 mps 738 mmHg 41%
    12:00 -1°C° 0 mm 7 mps 738 mmHg 41%
    13:00 0°C° 0 mm 7 mps 737 mmHg 40%
    14:00 0°C° 0 mm 7 mps 737 mmHg 40%
    15:00 +1°C° 0 mm 6 mps 736 mmHg 44%
    16:00 0°C° 0 mm 5 mps 736 mmHg 48%
    17:00 0°C° 0 mm 5 mps 735 mmHg 52%
    18:00 -1°C° 0 mm 5 mps 735 mmHg 53%
    19:00 -1°C° 0 mm 5 mps 735 mmHg 54%
    20:00 -2°C° 0 mm 5 mps 735 mmHg 56%
    21:00 -3°C° 0 mm 6 mps 735 mmHg 55%
    22:00 -3°C° 0 mm 7 mps 735 mmHg 55%
    23:00 -3°C° 0 mm 7 mps 735 mmHg 55%

    2 April, Thursday

    Time Temperature Precipitation Wind Pressure Humidity
    00:00 -3°C° 0 mm 7 mps 734 mmHg 54%
    01:00 -3°C° 0 mm 7 mps 734 mmHg 54%
    02:00 -3°C° 0 mm 7 mps 734 mmHg 54%
    03:00 -4°C° 0 mm 7 mps 733 mmHg 55%
    04:00 -4°C° 0 mm 7 mps 733 mmHg 55%
    05:00 -4°C° 0 mm 7 mps 733 mmHg 56%
    06:00 -4°C° 0 mm 8 mps 733 mmHg 54%
    07:00 -2°C° 0 mm 8 mps 733 mmHg 51%
    08:00 -1°C° 0 mm 8 mps 733 mmHg 49%
    09:00 -1°C° 0 mm 8 mps 733 mmHg 49%
    10:00 0°C° 0 mm 8 mps 733 mmHg 48%
    11:00 +1°C° 0 mm 8 mps 733 mmHg 48%
    12:00 +2°C° 0 mm 8 mps 732 mmHg 47%
    13:00 +2°C° 0 mm 8 mps 732 mmHg 47%
    14:00 +4°C° 0 mm 8 mps 732 mmHg 47%
    15:00 +3°C° 0 mm 7 mps 732 mmHg 49%
    16:00 +3°C° 0 mm 6 mps 732 mmHg 51%
    17:00 +3°C° 0 mm 6 mps 732 mmHg 54%
    18:00 +2°C° 0 mm 5 mps 732 mmHg 58%
    19:00 +1°C° 0 mm 5 mps 732 mmHg 62%
    20:00 +1°C° 0 mm 4 mps 732 mmHg 66%
    21:00 0°C° 0.2 mm 5 mps 732 mmHg 74%
    22:00 0°C° 0.2 mm 5 mps 732 mmHg 82%
    23:00 -1°C° 0.2 mm 5 mps 732 mmHg 89%

    3 April, Friday

    Time Temperature Precipitation Wind Pressure Humidity
    00:00 -1°C° 0 mm 4 mps 732 mmHg 90%
    01:00 -2°C° 0 mm 4 mps 732 mmHg 92%
    02:00 -1°C° 0 mm 3 mps 732 mmHg 93%
    03:00 -1°C° 0 mm 3 mps 733 mmHg 94%
    04:00 -2°C° 0 mm 3 mps 733 mmHg 95%
    05:00 -2°C° 0 mm 3 mps 733 mmHg 96%
    06:00 -1°C° 0 mm 3 mps 733 mmHg 90%
    07:00 -1°C° 0 mm 4 mps 733 mmHg 85%
    08:00 0°C° 0 mm 4 mps 734 mmHg 80%
    09:00 +2°C° 0 mm 5 mps 734 mmHg 73%
    10:00 +3°C° 0 mm 5 mps 734 mmHg 66%
    11:00 +4°C° 0 mm 6 mps 734 mmHg 59%
    12:00 +5°C° 0 mm 6 mps 734 mmHg 57%
    13:00 +5°C° 0 mm 6 mps 733 mmHg 54%
    14:00 +7°C° 0 mm 6 mps 733 mmHg 52%
    15:00 +7°C° 0 mm 6 mps 733 mmHg 54%
    16:00 +7°C° 0 mm 5 mps 733 mmHg 55%
    17:00 +6°C° 0 mm 5 mps 733 mmHg 57%
    18:00 +6°C° 0 mm 5 mps 733 mmHg 61%
    19:00 +5°C° 0 mm 5 mps 733 mmHg 64%
    20:00 +3°C° 0 mm 5 mps 733 mmHg 68%
    21:00 +3°C° 0 mm 5 mps 733 mmHg 67%
    22:00 +3°C° 0 mm 5 mps 733 mmHg 67%
    23:00 +3°C° 0 mm 5 mps 734 mmHg 67%
    Show more